Tracking 25734 objects as of 26-May-2022
HD Live streaming from Space Station
objects crossing your sky now

SL-16 DEB

Track SL-16 DEB now!
10-day predictions


NORAD ID: 39886
Int'l Code: 1993-016BL
Perigee: 657.2 km
Apogee: 745.3 km
Inclination: 71.0 °
Period: 98.6 minutes
Semi major axis: 7072 km
RCS: 0.0136 m2 (small)
Launch date: March 26, 1993
Source: Commonwealth of Independent States (former USSR) (CIS)
Launch site: TYURATAM MISSILE AND SPACE COMPLEX (TTMTR)

Note: This is SATELLITE DEBRIS
aabbcc
Your satellite tracking list
Your tracking list is empty




NASA's NSSDC Master Catalog

Two Line Element Set (TLE):
1 39886U 93016BL  22145.54269602  .00002699  00000-0  56227-3 0  9992
2 39886  71.0146 102.7963 0062274 155.1530 205.2638 14.59720354  7591
Source of the keplerian elements: AFSPC